C/1998 U1 (LINEAR) 

Epoch 1998 Apr. 17.0 TT = JDT 2450920.5  

T 1998 May 2.41887 TT                                   Nakano

q   3.9752027            (2000.0)            P               Q

z  -0.0001313      Peri.  124.62948     +0.10758748     +0.97331514

 +/-0.0001230      Node   210.45528     +0.72986432     +0.06110782

e   1.0005220      Incl.  156.42896     +0.67507260     -0.22118650

From 113 observations 1998 Oct. 18-1999 Jan. 13, mean residual 0".76.

Residuals in seconds of arc 

1998/                     981029 360  0.6+  0.3+    981117 587  0.2-  0.1+  

981018 704  1.9-  0.4-    981029 360  0.8+  1.0+    981118 372  1.0+  1.7+  

981018 704  0.3+  0.6+    981029 360  0.8+  0.8+    981118 046  0.4-  0.0   

981018 704  0.7-  0.4-    981029 372  0.0   1.3-    981118 046  0.9-  0.3-  

981018 704  1.8-  1.8+    981029 372  0.5-  0.6-    981118 046  0.7+  0.0   

981020 557  0.4+  0.5-    981107 046  0.4-  0.5-    981119 734 (2.3-  0.0 ) 

981020 557  0.9-  0.3-    981107 046  0.3+  0.0     981119 734  1.3-  0.7+  

981020 046  0.7+  0.2-    981107 046  1.0-  0.5-    981119 734 (3.4-  3.6-) 

981020 046  1.3+  0.3+    981107 046  0.2+  1.0-    981120 372  0.2-  0.8+  

981020 046  0.9+  1.2-    981107 046  0.2-  0.8-    981122 372  0.8-  0.1+  

981020 046  0.4+  0.1+    981110 372  0.6+  1.7+    981123 693  0.9-  0.3-  

981020 658  0.0   0.3-    981110 360  0.1+  0.3+    981123 693  0.9-  0.3-  

981020 658  0.3-  0.3-    981110 360  0.7-  0.0     981123 372  0.1-  1.4+  

981020 658  0.8-  0.0     981110 360  0.4-  0.0     981123 372  0.5-  0.6+  

981020 557  0.5+  0.2-    981112 402  0.2-  0.0     981123 360  0.4-  0.3-  

981020 557  0.4+  0.5+    981112 402  0.2+  0.1+    981123 360  1.1-  0.9-  

981020 557  1.0+  0.2-    981112 402  0.3+  0.1+    981123 360  0.8-  1.0-  

981020 557  0.2+  0.5-    981112 372  0.9+  1.2+    981124 372  0.2-  0.1-  

981020 557  0.5+  0.7-    981112 372  0.5+  1.1+    981126 402  0.1-  0.3-  

981020 557  0.4+  0.1-    981114 704 (2.6+  1.3+)   981126 402  0.5+  0.9-  

981021 557  0.3+  1.0-    981114 704  0.4+  0.2+    981126 402  0.6-  0.8-  

981021 046  0.3+  0.4-    981114 704  0.2+  0.7-    981128 372  1.1+  0.3-  

981021 046  1.1-  0.0     981114 704  0.2-  1.2-    981129 402  0.3-  1.2-  

981021 046  1.2-  0.4-    981114 704 (3.9-  2.4-)   981129 402  0.8+  1.5-  

981021 046  0.5-  1.1-    981114 372  0.2-  0.3+    981129 402  1.9+  0.5-  

981021 046  1.0-  1.2-    981115 360  0.6+  0.2-    981211 372  1.2+  1.1+  

981021 673  1.6+  0.4+    981115 360  0.3+  0.1-    981212 372  1.1+  1.6+  

981021 673  1.4+  0.5+    981115 360  0.3+  0.1+    981213 372 (1.3+  2.7+) 

981021 658  0.0   0.9-    981115 372  0.1-  0.7+    981217 402  0.8+  1.5+  

981021 658  0.2-  0.8-    981116 704  0.7+  0.3+    981217 402  0.3+  1.0+  

981021 658  0.6-  0.8-    981116 704 (2.6+  1.4-)   981217 402  0.7+  1.0+  

981022 402  1.5+  0.3+    981116 704 (2.5+  0.7+)   981217 360  0.3+  0.1+  

981022 402 (2.3+  0.1+)   981116 704  0.1+  0.5+    981217 360  0.2-  0.5+  

981022 402  1.1+  0.1-    981116 704  0.1+  0.3+    981217 360  0.1+  0.8+  

981024 360  0.7-  0.1-    981117 046  1.2-  0.4+    981223 402  0.3+  1.2-  

981024 360  0.8-  0.1+    981117 046  0.1-  0.1+    981223 402  0.1+  1.1-  

981024 360  0.7-  0.2-    981117 046  1.1-  0.7-    981223 402 (1.8+  2.7-) 

981024 372 (2.0-  0.2-)   981117 046  0.8-  0.1+    981223 402  0.4+  0.9-  

981024 372 (2.4-  0.2-)   981117 587  0.0   0.1-    1999/                   

981025 867  1.3+  1.9+    981117 046  1.4-  0.5+    990113 360  0.5-  0.7-  

981025 867  0.2+  1.9+    981117 046  1.1-  0.2-    990113 360  0.5-  1.2-  

981025 867  0.6+  1.6+    981117 587  0.5-  0.4+    990113 360  0.1+  0.5-  





    C/1998 U1 (LINEAR) 

T 1998 May 2.43648 TT                                   Nakano

q   3.9751864            (2000.0)            P               Q

                   Peri.  124.63711     +0.10767407     +0.97329980

                   Node   210.45814     +0.72986474     +0.06106392

e   1.0            Incl.  156.42767     +0.67505834     -0.22126614

From 110 observations 1998 Oct. 18-Dec. 23.



    C/1998 U1 (LINEAR) 

T 1998 May 2.61277 TT                                   Nakano

q   3.9759112            (2000.0)            P               Q

                   Peri.  124.67115     +0.10825621     +0.97323600

                   Node   210.45785     +0.72990284     +0.06062417

e   1.0            Incl.  156.42792     +0.67492402     -0.22166732

From 91 observations 1998 Oct. 18-Nov. 29.



–ß‚è‚Ü‚·B